QPF
0.34 0.43 0.41 0.32 0.23 0.16 0.10 0.07 0.05 0.03 0.02 0.01 0.02 0.02 0.02 0.01 0.01 0.02 0.03 0.04 0.04 0.03 0.02 0.02 0.01 0.02 0.01 0.01 0.01 0.02 0.02 0.02 0.03 0.03 0.02 0.01 0.02 0.04 0.06 0.09 0.10 0.06 0.03
0.39 0.51 0.47 0.41 0.39 0.43 0.38 0.27 0.16 0.10 0.07 0.04 0.04 0.03 0.03 0.03 0.03 0.03 0.05 0.06 0.05 0.04 0.03 0.02 0.02 0.02 0.02 0.01 0.02 0.03 0.03 0.02 0.03 0.04 0.04 0.04 0.03 0.04 0.11 0.21 0.22 0.13 0.07
0.12 0.18 0.20 0.22 0.25 0.30 0.30 0.27 0.24 0.19 0.14 0.09 0.06 0.04 0.03 0.03 0.05 0.05 0.07 0.05 0.04 0.04 0.04 0.03 0.03 0.02 0.03 0.03 0.04 0.05 0.04 0.03 0.05 0.06 0.07 0.08 0.07 0.05 0.04 0.06 0.14 0.17 0.15
0.11 0.12 0.13 0.15 0.18 0.18 0.18 0.22 0.25 0.24 0.20 0.18 0.12 0.08 0.06 0.05 0.09 0.07 0.04 0.03 0.03 0.03 0.03 0.03 0.03 0.03 0.04 0.04 0.05 0.05 0.06 0.06 0.06 0.09 0.09 0.10 0.11 0.11 0.08 0.06 0.09 0.14 0.17
0.17 0.17 0.17 0.17 0.16 0.17 0.19 0.21 0.22 0.24 0.22 0.19 0.16 0.13 0.09 0.08 0.08 0.05 0.02 0.02 0.03 0.02 0.02 0.02 0.02 0.03 0.04 0.04 0.05 0.06 0.07 0.07 0.06 0.08 0.10 0.11 0.12 0.15 0.16 0.09 0.06 0.08 0.09
0.19 0.21 0.19 0.18 0.18 0.20 0.20 0.16 0.16 0.15 0.14 0.12 0.11 0.10 0.09 0.07 0.05 0.03 0.02 0.02 0.02 0.01 0.01 0.02 0.03 0.03 0.04 0.05 0.06 0.07 0.08 0.08 0.08 0.08 0.10 0.11 0.13 0.18 0.24 0.20 0.12 0.08 0.04
0.19 0.19 0.18 0.18 0.17 0.13 0.10 0.07 0.07 0.07 0.07 0.06 0.06 0.06 0.05 0.05 0.03 0.02 0.01 0.01 0.01 0.00 0.01 0.01 0.02 0.03 0.05 0.06 0.07 0.07 0.08 0.08 0.08 0.08 0.10 0.12 0.14 0.19 0.25 0.26 0.23 0.17 0.08
0.13 0.11 0.09 0.08 0.08 0.08 0.07 0.04 0.04 0.04 0.03 0.03 0.02 0.02 0.01 0.01 0.00 0.00 0.00 0.00 0.00 0.00 0.00 0.01 0.02 0.03 0.04 0.06 0.07 0.08 0.09 0.10 0.09 0.10 0.11 0.13 0.16 0.21 0.26 0.30 0.32 0.26 0.14
0.11 0.10 0.10 0.09 0.08 0.07 0.06 0.05 0.04 0.04 0.03 0.02 0.02 0.01 0.00 0.00 0.00 0.00 0.00 0.00 0.00 0.00 0.00 0.01 0.01 0.03 0.04 0.06 0.09 0.10 0.11 0.11 0.12 0.13 0.14 0.16 0.17 0.20 0.24 0.30 0.34 0.30 0.20
0.15 0.15 0.15 0.14 0.13 0.11 0.09 0.07 0.06 0.05 0.04 0.03 0.02 0.01 0.01 0.00 0.00 0.00 0.00 0.00 0.00 0.00 0.00 0.00 0.01 0.01 0.01 0.02 0.05 0.06 0.08 0.10 0.11 0.12 0.13 0.15 0.17 0.17 0.17 0.20 0.24 0.24 0.18
0.18 0.17 0.15 0.12 0.11 0.12 0.11 0.09 0.06 0.06 0.05 0.03 0.02 0.01 0.01 0.00 0.00 0.00 0.00 0.00 0.00 0.00 0.00 0.00 0.00 0.00 0.00 0.01 0.01 0.03 0.04 0.05 0.06 0.07 0.09 0.11 0.11 0.10 0.09 0.09 0.09 0.10 0.11
0.14 0.12 0.09 0.07 0.07 0.07 0.08 0.07 0.05 0.05 0.04 0.02 0.01 0.00 0.00 0.00 0.00 0.00 0.00 0.00 0.00 0.00 0.00 0.00 0.00 0.00 0.00 0.00 0.00 0.01 0.01 0.02 0.02 0.03 0.04 0.04 0.04 0.04 0.04 0.04 0.03 0.04 0.05
0.12 0.08 0.05 0.04 0.03 0.03 0.03 0.03 0.03 0.03 0.02 0.02 0.01 0.00 0.00 0.00 0.00 0.00 0.00 0.00 0.00 0.00 0.00 0.00 0.00 0.00 0.00 0.00 0.00 0.00 0.00 0.01 0.01 0.02 0.02 0.02 0.01 0.01 0.01 0.01 0.01 0.01 0.03
0.08 0.05 0.03 0.02 0.02 0.02 0.01 0.01 0.03 0.02 0.01 0.01 0.01 0.01 0.00 0.00 0.00 0.00 0.00 0.00 0.00 0.00 0.00 0.00 0.00 0.00 0.00 0.00 0.00 0.00 0.00 0.01 0.01 0.01 0.01 0.00 0.00 0.00 0.00 0.00 0.00 0.00 0.01
0.06 0.03 0.02 0.02 0.01 0.01 0.01 0.01 0.02 0.02 0.02 0.02 0.02 0.02 0.01 0.00 0.00 0.00 0.00 0.00 0.00 0.00 0.00 0.00 0.00 0.00 0.00 0.00 0.00 0.00 0.00 0.01 0.01 0.01 0.00 0.00 0.00 0.00 0.00 0.00 0.00 0.00 0.00
0.04 0.03 0.02 0.02 0.02 0.01 0.01 0.01 0.02 0.02 0.02 0.03 0.02 0.02 0.02 0.01 0.00 0.00 0.00 0.00 0.00 0.00 0.00 0.00 0.00 0.00 0.00 0.00 0.00 0.00 0.00 0.00 0.00 0.00 0.00 0.00 0.00 0.00 0.00 0.00 0.00 0.00 0.00
0.02 0.02 0.01 0.02 0.01 0.01 0.01 0.02 0.03 0.03 0.03 0.02 0.02 0.02 0.01 0.01 0.00 0.00 0.00 0.00 0.00 0.00 0.00 0.00 0.00 0.00 0.00 0.00 0.00 0.00 0.00 0.00 0.00 0.00 0.00 0.00 0.00 0.00 0.00 0.00 0.00 0.00 0.00
0.00 0.00 0.00 0.00 0.00 0.00 0.00 0.02 0.04 0.04 0.03 0.02 0.01 0.00 0.00 0.00 0.00 0.00 0.00 0.00 0.00 0.00 0.00 0.00 0.00 0.00 0.00 0.00 0.00 0.00 0.00 0.00 0.00 0.00 0.00 0.00 0.00 0.00 0.00 0.00 0.00 0.00 0.00
0.00 0.00 0.00 0.00 0.00 0.00 0.01 0.02 0.04 0.05 0.05 0.03 0.01 0.00 0.00 0.00 0.00 0.00 0.00 0.00 0.00 0.00 0.00 0.01 0.00 0.00 0.00 0.00 0.00 0.00 0.00 0.00 0.00 0.00 0.00 0.00 0.00 0.00 0.00 0.00 0.00 0.00 0.00
0.00 0.00 0.00 0.00 0.00 0.01 0.02 0.04 0.05 0.05 0.04 0.03 0.01 0.00 0.00 0.00 0.00 0.00 0.00 0.00 0.00 0.00 0.00 0.01 0.01 0.00 0.00 0.00 0.00 0.00 0.00 0.00 0.00 0.00 0.00 0.00 0.00 0.00 0.00 0.00 0.00 0.00 0.00
0.00 0.00 0.00 0.00 0.01 0.02 0.03 0.04 0.05 0.04 0.02 0.02 0.01 0.01 0.00 0.00 0.00 0.00 0.00 0.00 0.00 0.00 0.00 0.00 0.00 0.00 0.00 0.00 0.00 0.00 0.00 0.00 0.00 0.00 0.00 0.00 0.00 0.00 0.00 0.00 0.00 0.00 0.00
0.00 0.00 0.00 0.01 0.01 0.02 0.02 0.03 0.03 0.02 0.02 0.01 0.00 0.00 0.00 0.00 0.00 0.00 0.00 0.00 0.00 0.00 0.00 0.00 0.00 0.00 0.00 0.00 0.00 0.00 0.00 0.00 0.00 0.00 0.00 0.00 0.00 0.00 0.00 0.00 0.00 0.00 0.00
0.00 0.00 0.00 0.01 0.01 0.01 0.02 0.02 0.02 0.01 0.01 0.01 0.00 0.00 0.00 0.00 0.00 0.00 0.00 0.00 0.00 0.00 0.00 0.00 0.00 0.00 0.00 0.00 0.00 0.00 0.00 0.00 0.00 0.00 0.00 0.00 0.00 0.00 0.00 0.00 0.00 0.00 0.00
0.00 0.00 0.00 0.01 0.01 0.02 0.02 0.02 0.01 0.01 0.01 0.01 0.00 0.00 0.00 0.00 0.00 0.00 0.00 0.00 0.00 0.00 0.00 0.00 0.00 0.00 0.00 0.00 0.00 0.00 0.00 0.00 0.00 0.00 0.00 0.00 0.00 0.00 0.00 0.00 0.00 0.00 0.00
0.00 0.00 0.00 0.01 0.01 0.01 0.01 0.01 0.01 0.00 0.00 0.01 0.00 0.00 0.00 0.00 0.00 0.00 0.00 0.00 0.00 0.00 0.00 0.00 0.00 0.00 0.00 0.00 0.00 0.00 0.00 0.00 0.00 0.00 0.00 0.00 0.00 0.00 0.00 0.00 0.00 0.00 0.00
0.00 0.00 0.00 0.00 0.01 0.00 0.00 0.00 0.01 0.01 0.01 0.01 0.00 0.00 0.00 0.00 0.00 0.00 0.00 0.00 0.00 0.00 0.00 0.00 0.00 0.00 0.00 0.00 0.00 0.00 0.00 0.00 0.00 0.00 0.00 0.00 0.00 0.00 0.00 0.00 0.00 0.00 0.01
MSLP
1009.28 1009.72 1010.11 1010.42 1010.66 1010.84 1011.00 1011.16 1011.34 1011.56 1011.79 1012.01 1012.21 1012.35 1012.41 1012.40 1012.34 1012.24 1012.16 1012.12 1012.15 1012.27 1012.48 1012.77 1013.12 1013.48 1013.82 1014.11 1014.32 1014.45 1014.49 1014.44 1014.32 1014.13 1013.88 1013.58 1013.22 1012.82 1012.39 1011.94 1011.51 1011.12 1010.80
1009.71 1010.13 1010.48 1010.74 1010.90 1011.00 1011.08 1011.16 1011.29 1011.48 1011.70 1011.94 1012.16 1012.32 1012.40 1012.39 1012.30 1012.18 1012.06 1011.98 1011.98 1012.09 1012.28 1012.57 1012.90 1013.24 1013.56 1013.82 1014.00 1014.10 1014.12 1014.08 1013.98 1013.84 1013.66 1013.43 1013.15 1012.81 1012.40 1011.96 1011.50 1011.06 1010.67
1010.22 1010.60 1010.89 1011.08 1011.16 1011.18 1011.17 1011.19 1011.28 1011.43 1011.65 1011.89 1012.13 1012.30 1012.40 1012.39 1012.30 1012.16 1012.01 1011.91 1011.89 1011.96 1012.14 1012.40 1012.71 1013.02 1013.29 1013.50 1013.64 1013.71 1013.71 1013.67 1013.61 1013.53 1013.43 1013.29 1013.10 1012.84 1012.49 1012.08 1011.61 1011.14 1010.70
1010.79 1011.08 1011.29 1011.39 1011.39 1011.33 1011.26 1011.23 1011.27 1011.40 1011.61 1011.86 1012.11 1012.30 1012.41 1012.41 1012.32 1012.18 1012.02 1011.90 1011.86 1011.92 1012.07 1012.30 1012.57 1012.83 1013.06 1013.22 1013.30 1013.33 1013.32 1013.29 1013.26 1013.24 1013.21 1013.16 1013.06 1012.89 1012.61 1012.24 1011.79 1011.31 1010.83
1011.37 1011.54 1011.64 1011.65 1011.58 1011.45 1011.33 1011.25 1011.26 1011.38 1011.58 1011.84 1012.10 1012.31 1012.43 1012.45 1012.38 1012.24 1012.09 1011.97 1011.92 1011.96 1012.08 1012.28 1012.50 1012.71 1012.88 1012.98 1013.02 1013.01 1012.98 1012.95 1012.94 1012.97 1013.01 1013.03 1013.01 1012.92 1012.71 1012.39 1011.97 1011.50 1011.01
1011.90 1011.94 1011.94 1011.86 1011.71 1011.53 1011.36 1011.25 1011.25 1011.35 1011.55 1011.81 1012.08 1012.31 1012.45 1012.50 1012.45 1012.34 1012.21 1012.10 1012.05 1012.08 1012.18 1012.34 1012.52 1012.68 1012.78 1012.83 1012.82 1012.78 1012.72 1012.68 1012.68 1012.73 1012.80 1012.88 1012.92 1012.88 1012.73 1012.46 1012.09 1011.64 1011.16
1012.36 1012.27 1012.16 1012.00 1011.79 1011.57 1011.37 1011.25 1011.23 1011.32 1011.52 1011.78 1012.05 1012.30 1012.47 1012.56 1012.55 1012.48 1012.38 1012.30 1012.26 1012.28 1012.36 1012.48 1012.61 1012.72 1012.77 1012.76 1012.70 1012.61 1012.52 1012.46 1012.46 1012.50 1012.59 1012.68 1012.75 1012.75 1012.64 1012.42 1012.09 1011.69 1011.24
1012.71 1012.51 1012.32 1012.10 1011.85 1011.60 1011.39 1011.25 1011.22 1011.31 1011.50 1011.76 1012.04 1012.30 1012.50 1012.62 1012.66 1012.64 1012.58 1012.53 1012.51 1012.54 1012.60 1012.69 1012.77 1012.82 1012.82 1012.76 1012.65 1012.52 1012.39 1012.30 1012.27 1012.29 1012.36 1012.45 1012.52 1012.53 1012.44 1012.26 1011.98 1011.62 1011.22
1012.95 1012.68 1012.44 1012.18 1011.92 1011.66 1011.44 1011.30 1011.27 1011.34 1011.52 1011.77 1012.06 1012.33 1012.55 1012.71 1012.79 1012.82 1012.82 1012.80 1012.80 1012.83 1012.87 1012.93 1012.96 1012.96 1012.91 1012.80 1012.65 1012.48 1012.32 1012.19 1012.12 1012.11 1012.14 1012.20 1012.25 1012.25 1012.17 1012.02 1011.77 1011.47 1011.12
1013.09 1012.81 1012.55 1012.29 1012.03 1011.78 1011.57 1011.43 1011.39 1011.46 1011.62 1011.86 1012.13 1012.40 1012.64 1012.83 1012.95 1013.03 1013.06 1013.08 1013.10 1013.13 1013.16 1013.18 1013.18 1013.13 1013.03 1012.88 1012.69 1012.49 1012.29 1012.13 1012.03 1011.98 1011.97 1011.99 1012.00 1011.98 1011.90 1011.76 1011.54 1011.28 1010.99
1013.18 1012.92 1012.68 1012.45 1012.21 1011.98 1011.79 1011.67 1011.62 1011.68 1011.82 1012.03 1012.29 1012.55 1012.79 1012.99 1013.14 1013.25 1013.32 1013.37 1013.40 1013.43 1013.44 1013.44 1013.40 1013.31 1013.17 1012.99 1012.78 1012.55 1012.34 1012.16 1012.03 1011.94 1011.90 1011.88 1011.85 1011.81 1011.71 1011.56 1011.37 1011.13 1010.87
1013.26 1013.05 1012.86 1012.67 1012.47 1012.28 1012.11 1012.00 1011.96 1012.00 1012.12 1012.31 1012.53 1012.77 1013.00 1013.20 1013.36 1013.48 1013.57 1013.64 1013.68 1013.71 1013.71 1013.68 1013.61 1013.50 1013.34 1013.15 1012.92 1012.69 1012.48 1012.29 1012.15 1012.05 1011.98 1011.92 1011.86 1011.78 1011.67 1011.50 1011.30 1011.06 1010.81
1013.36 1013.22 1013.09 1012.94 1012.79 1012.64 1012.50 1012.41 1012.37 1012.41 1012.51 1012.66 1012.85 1013.06 1013.27 1013.45 1013.60 1013.73 1013.82 1013.90 1013.94 1013.97 1013.96 1013.92 1013.84 1013.71 1013.55 1013.35 1013.13 1012.91 1012.71 1012.54 1012.40 1012.29 1012.21 1012.14 1012.06 1011.94 1011.80 1011.60 1011.37 1011.11 1010.84
1013.49 1013.42 1013.34 1013.24 1013.12 1013.00 1012.90 1012.83 1012.81 1012.84 1012.93 1013.06 1013.22 1013.39 1013.56 1013.72 1013.86 1013.97 1014.06 1014.13 1014.18 1014.21 1014.20 1014.16 1014.07 1013.95 1013.79 1013.60 1013.40 1013.21 1013.03 1012.88 1012.77 1012.67 1012.59 1012.51 1012.41 1012.27 1012.09 1011.85 1011.58 1011.27 1010.95
1013.62 1013.60 1013.56 1013.49 1013.41 1013.32 1013.25 1013.21 1013.21 1013.26 1013.34 1013.46 1013.60 1013.73 1013.87 1013.99 1014.11 1014.20 1014.28 1014.35 1014.40 1014.43 1014.43 1014.39 1014.31 1014.20 1014.06 1013.90 1013.73 1013.56 1013.42 1013.30 1013.21 1013.14 1013.07 1012.98 1012.87 1012.70 1012.48 1012.21 1011.88 1011.51 1011.12
1013.73 1013.74 1013.71 1013.65 1013.59 1013.53 1013.49 1013.49 1013.52 1013.59 1013.69 1013.81 1013.93 1014.05 1014.15 1014.25 1014.34 1014.41 1014.48 1014.54 1014.60 1014.63 1014.64 1014.62 1014.56 1014.47 1014.35 1014.22 1014.08 1013.94 1013.83 1013.74 1013.68 1013.62 1013.56 1013.48 1013.35 1013.17 1012.91 1012.59 1012.21 1011.78 1011.32
1013.77 1013.77 1013.73 1013.68 1013.62 1013.58 1013.58 1013.62 1013.70 1013.81 1013.94 1014.07 1014.19 1014.30 1014.40 1014.47 1014.54 1014.60 1014.66 1014.72 1014.78 1014.83 1014.86 1014.86 1014.82 1014.75 1014.66 1014.54 1014.43 1014.32 1014.23 1014.16 1014.10 1014.06 1014.00 1013.92 1013.79 1013.59 1013.31 1012.96 1012.53 1012.05 1011.53
1013.70 1013.67 1013.62 1013.55 1013.50 1013.48 1013.52 1013.60 1013.74 1013.90 1014.07 1014.23 1014.38 1014.50 1014.59 1014.66 1014.71 1014.77 1014.83 1014.90 1014.97 1015.03 1015.07 1015.09 1015.08 1015.04 1014.96 1014.86 1014.76 1014.66 1014.57 1014.51 1014.46 1014.41 1014.35 1014.27 1014.13 1013.92 1013.63 1013.26 1012.81 1012.31 1011.76
1013.50 1013.45 1013.38 1013.30 1013.25 1013.26 1013.34 1013.47 1013.66 1013.88 1014.10 1014.31 1014.49 1014.63 1014.74 1014.81 1014.88 1014.94 1015.00 1015.08 1015.16 1015.24 1015.31 1015.35 1015.35 1015.32 1015.26 1015.17 1015.07 1014.97 1014.87 1014.80 1014.73 1014.67 1014.60 1014.51 1014.36 1014.15 1013.86 1013.50 1013.05 1012.55 1012.00
1013.20 1013.14 1013.05 1012.98 1012.95 1012.99 1013.10 1013.29 1013.53 1013.80 1014.08 1014.33 1014.55 1014.72 1014.85 1014.95 1015.03 1015.10 1015.18 1015.28 1015.37 1015.47 1015.56 1015.62 1015.64 1015.62 1015.57 1015.48 1015.37 1015.25 1015.14 1015.05 1014.96 1014.88 1014.79 1014.68 1014.53 1014.32 1014.04 1013.69 1013.27 1012.80 1012.28
1012.84 1012.78 1012.71 1012.65 1012.65 1012.72 1012.87 1013.10 1013.39 1013.71 1014.03 1014.33 1014.59 1014.79 1014.96 1015.08 1015.19 1015.28 1015.38 1015.49 1015.61 1015.73 1015.83 1015.91 1015.94 1015.94 1015.89 1015.80 1015.68 1015.55 1015.42 1015.30 1015.18 1015.08 1014.96 1014.84 1014.68 1014.47 1014.21 1013.89 1013.51 1013.08 1012.61
1012.44 1012.42 1012.39 1012.37 1012.40 1012.51 1012.70 1012.96 1013.29 1013.64 1013.99 1014.32 1014.61 1014.85 1015.05 1015.20 1015.34 1015.46 1015.59 1015.72 1015.86 1015.99 1016.11 1016.21 1016.26 1016.26 1016.22 1016.14 1016.02 1015.88 1015.74 1015.59 1015.45 1015.32 1015.18 1015.03 1014.87 1014.66 1014.42 1014.13 1013.79 1013.41 1013.00
1012.05 1012.09 1012.12 1012.16 1012.24 1012.38 1012.60 1012.89 1013.23 1013.59 1013.96 1014.31 1014.63 1014.90 1015.12 1015.31 1015.47 1015.63 1015.78 1015.94 1016.09 1016.25 1016.39 1016.50 1016.57 1016.59 1016.56 1016.49 1016.38 1016.25 1016.10 1015.94 1015.78 1015.63 1015.47 1015.30 1015.13 1014.92 1014.69 1014.42 1014.12 1013.80 1013.45
1011.66 1011.79 1011.89 1012.00 1012.13 1012.32 1012.56 1012.85 1013.20 1013.56 1013.94 1014.29 1014.62 1014.91 1015.16 1015.38 1015.57 1015.75 1015.93 1016.11 1016.29 1016.46 1016.61 1016.74 1016.84 1016.88 1016.88 1016.83 1016.75 1016.63 1016.49 1016.33 1016.17 1016.00 1015.83 1015.65 1015.46 1015.25 1015.03 1014.78 1014.51 1014.22 1013.92
1011.25 1011.48 1011.67 1011.85 1012.04 1012.26 1012.52 1012.82 1013.15 1013.51 1013.88 1014.23 1014.56 1014.86 1015.13 1015.37 1015.60 1015.80 1016.00 1016.20 1016.40 1016.58 1016.76 1016.91 1017.02 1017.10 1017.13 1017.12 1017.07 1016.98 1016.86 1016.72 1016.57 1016.40 1016.22 1016.03 1015.83 1015.63 1015.40 1015.16 1014.91 1014.65 1014.39
1010.78 1011.10 1011.38 1011.63 1011.87 1012.13 1012.41 1012.71 1013.04 1013.39 1013.74 1014.09 1014.42 1014.73 1015.02 1015.28 1015.52 1015.75 1015.97 1016.18 1016.39 1016.59 1016.77 1016.94 1017.08 1017.19 1017.25 1017.28 1017.28 1017.23 1017.15 1017.04 1016.91 1016.75 1016.58 1016.40 1016.20 1015.99 1015.77 1015.54 1015.31 1015.08 1014.84
Thickness
5799 5801 5801 5799 5795 5793 5792 5793 5790 5789 5786 5782 5778 5775 5773 5774 5774 5774 5773 5772 5770 5768 5766 5763 5761 5758 5755 5753 5751 5748 5745 5744 5744 5740 5739 5743 5746 5748 5750 5751 5752 5752 5753
5788 5790 5790 5790 5787 5784 5785 5784 5783 5781 5780 5778 5775 5773 5771 5769 5768 5768 5766 5765 5763 5762 5760 5758 5755 5753 5750 5748 5745 5742 5739 5738 5738 5733 5729 5727 5731 5739 5745 5745 5746 5747 5748
5779 5778 5779 5780 5779 5778 5778 5777 5774 5772 5773 5772 5769 5766 5763 5761 5759 5758 5758 5758 5757 5755 5754 5753 5750 5748 5745 5742 5740 5737 5733 5730 5731 5730 5724 5718 5717 5724 5733 5737 5740 5740 5740
5761 5761 5762 5763 5765 5766 5767 5765 5762 5762 5763 5762 5759 5756 5752 5749 5749 5750 5750 5750 5749 5748 5747 5745 5744 5741 5739 5736 5734 5732 5729 5725 5722 5722 5722 5721 5719 5714 5716 5725 5730 5733 5733
5745 5745 5746 5749 5752 5754 5753 5752 5751 5750 5750 5750 5749 5747 5745 5743 5743 5743 5741 5741 5740 5740 5738 5737 5735 5734 5732 5730 5728 5725 5723 5720 5717 5715 5714 5714 5713 5712 5708 5710 5717 5723 5727
5732 5731 5734 5736 5737 5740 5739 5739 5739 5739 5740 5740 5739 5737 5735 5734 5733 5732 5731 5730 5730 5729 5729 5728 5726 5725 5723 5722 5720 5718 5715 5713 5711 5709 5708 5706 5705 5704 5703 5703 5707 5710 5718
5719 5719 5721 5721 5722 5724 5726 5727 5728 5727 5728 5728 5727 5727 5726 5724 5722 5721 5721 5719 5718 5717 5717 5717 5716 5714 5713 5712 5711 5709 5707 5705 5703 5702 5701 5701 5701 5701 5699 5698 5699 5702 5708
5705 5707 5709 5709 5710 5713 5715 5716 5717 5717 5717 5717 5716 5716 5716 5714 5713 5712 5710 5709 5707 5707 5706 5705 5704 5703 5702 5701 5700 5698 5697 5696 5694 5694 5694 5694 5695 5696 5695 5693 5692 5691 5695
5691 5693 5697 5699 5699 5700 5702 5704 5705 5705 5705 5705 5704 5704 5703 5702 5701 5700 5699 5697 5696 5696 5695 5694 5692 5692 5691 5690 5690 5688 5688 5687 5686 5686 5686 5686 5688 5689 5689 5689 5688 5684 5683
5675 5677 5681 5685 5687 5688 5689 5690 5691 5691 5691 5692 5692 5691 5690 5689 5689 5688 5687 5686 5685 5684 5683 5682 5682 5681 5681 5681 5680 5680 5680 5679 5679 5679 5678 5679 5679 5680 5681 5682 5682 5682 5679
5659 5662 5665 5668 5672 5674 5674 5674 5676 5677 5679 5679 5678 5678 5677 5677 5677 5676 5675 5674 5674 5674 5673 5673 5673 5672 5672 5672 5672 5672 5672 5672 5671 5671 5671 5670 5671 5671 5672 5673 5675 5676 5675
5648 5648 5651 5654 5656 5659 5661 5661 5664 5665 5667 5667 5667 5666 5666 5665 5664 5664 5664 5664 5663 5664 5664 5664 5663 5663 5663 5663 5664 5664 5665 5665 5664 5663 5662 5661 5662 5661 5662 5664 5665 5667 5670
5637 5637 5638 5641 5644 5646 5649 5651 5653 5654 5656 5656 5655 5654 5654 5654 5653 5653 5653 5653 5653 5653 5654 5653 5652 5652 5652 5653 5655 5656 5657 5657 5656 5655 5654 5653 5653 5652 5654 5656 5657 5660 5664
5626 5627 5628 5630 5633 5636 5638 5640 5641 5644 5645 5645 5644 5643 5643 5644 5643 5643 5643 5643 5643 5643 5642 5642 5641 5641 5641 5643 5644 5646 5646 5646 5646 5646 5645 5644 5644 5644 5646 5649 5650 5653 5657
5616 5618 5618 5620 5622 5625 5627 5629 5631 5633 5635 5634 5634 5634 5635 5635 5634 5633 5633 5633 5633 5633 5632 5631 5630 5630 5631 5632 5633 5634 5634 5634 5634 5634 5634 5634 5635 5637 5638 5641 5642 5644 5647
5610 5611 5611 5612 5613 5615 5617 5619 5621 5622 5624 5624 5624 5625 5625 5625 5624 5623 5623 5623 5623 5622 5621 5619 5618 5618 5619 5620 5622 5622 5621 5620 5620 5619 5620 5623 5624 5627 5630 5632 5634 5636 5637
5607 5606 5605 5605 5606 5607 5609 5610 5612 5613 5614 5614 5615 5615 5615 5614 5613 5613 5613 5612 5612 5611 5610 5608 5607 5606 5607 5609 5610 5611 5609 5607 5605 5604 5605 5608 5610 5612 5616 5619 5623 5626 5629
5604 5602 5601 5600 5600 5602 5603 5604 5604 5605 5605 5605 5605 5605 5604 5603 5602 5602 5602 5602 5602 5601 5600 5598 5597 5596 5596 5598 5599 5599 5596 5593 5591 5590 5590 5591 5592 5596 5599 5603 5606 5610 5615
5604 5601 5599 5598 5597 5597 5597 5597 5597 5597 5597 5596 5596 5596 5595 5594 5593 5593 5593 5593 5593 5592 5590 5588 5587 5585 5584 5586 5587 5587 5584 5580 5578 5577 5577 5577 5578 5582 5585 5588 5590 5595 5600
5603 5600 5599 5597 5594 5593 5593 5592 5591 5591 5590 5590 5590 5589 5588 5587 5587 5586 5586 5585 5585 5583 5582 5579 5576 5575 5573 5574 5575 5575 5573 5570 5568 5566 5566 5566 5566 5568 5571 5572 5574 5577 5582
5604 5601 5598 5594 5592 5591 5590 5588 5587 5587 5586 5585 5584 5583 5582 5581 5581 5580 5580 5578 5577 5575 5572 5569 5566 5564 5563 5563 5563 5563 5561 5559 5557 5556 5554 5555 5556 5557 5559 5560 5561 5563 5568
5604 5601 5595 5592 5591 5590 5588 5585 5584 5585 5583 5582 5580 5578 5577 5577 5577 5575 5573 5572 5570 5567 5563 5560 5557 5556 5554 5553 5552 5551 5550 5549 5546 5544 5543 5544 5546 5547 5549 5550 5551 5554 5558
5604 5601 5596 5592 5590 5589 5588 5584 5584 5583 5581 5578 5576 5574 5573 5572 5571 5569 5567 5565 5563 5559 5556 5553 5550 5548 5546 5544 5543 5542 5540 5538 5535 5533 5535 5536 5538 5539 5539 5540 5541 5542 5543
5606 5601 5597 5592 5590 5589 5588 5585 5583 5581 5578 5575 5572 5570 5568 5566 5565 5563 5562 5559 5556 5553 5550 5547 5543 5541 5538 5536 5534 5531 5529 5528 5526 5524 5525 5527 5528 5528 5528 5528 5528 5529 5529
5608 5603 5599 5595 5592 5590 5587 5585 5583 5579 5575 5572 5569 5567 5564 5562 5560 5558 5556 5555 5553 5551 5547 5543 5539 5534 5531 5529 5527 5522 5519 5516 5514 5513 5514 5514 5514 5514 5514 5514 5514 5515 5516
5609 5604 5600 5597 5593 5590 5587 5585 5582 5579 5574 5570 5566 5563 5561 5558 5556 5553 5551 5550 5548 5546 5543 5540 5535 5531 5528 5524 5520 5516 5513 5510 5508 5504 5500 5500 5500 5500 5499 5499 5500 5501 5502